KE0DYO Weather Reports


time (UTC)temp
C
wind
direction
speed
KPH
gust
KPH
rain 1hr
cm
rain 24hr
cm
rain mn
cm
humidity
%
barometer
mb
20260507181518 17 360 6.4 19.3 0.00 0.00 0.00 59 1017.0
20260507180033 16 360 4.8 17.7 0.00 0.00 0.00 57 1017.1
20260507174557 17 360 8.0 22.5 0.00 0.00 0.00 60 1017.4
20260507173132 16 360 4.8 16.1 0.00 0.00 0.00 61 1017.5
20260507171531 16 360 8.0 20.9 0.00 0.00 0.00 59 1017.7
20260507170033 16 360 9.7 20.9 0.00 0.00 0.00 61 1018.1
20260507164555 16 360 4.8 17.7 0.00 0.00 0.00 60 1018.2
20260507163002 16 360 9.7 19.3 0.00 0.00 0.00 62 1018.4
20260507161529 16 360 9.7 19.3 0.00 0.00 0.00 58 1018.3
20260507160040 15 360 6.4 12.9 0.00 0.00 0.00 60 1018.5
20260507154552 15 360 6.4 16.1 0.00 0.00 0.00 60 1018.6
20260507153012 15 360 4.8 12.9 0.00 0.00 0.00 63 1018.6
20260507151533 15 360 4.8 9.7 0.00 0.00 0.00 66 1018.8
20260507150047 13 360 4.8 14.5 0.00 0.00 0.00 66 1018.9
20260507144601 13 360 6.4 16.1 0.00 0.00 0.00 67 1019.1
20260507143017 13 360 3.2 11.3 0.00 0.00 0.00 69 1019.1
20260507141523 12 360 4.8 12.9 0.00 0.00 0.00 71 1019.2
20260507140041 12 360 1.6 16.1 0.00 0.00 0.00 73 1019.2
20260507134602 11 360 3.2 9.7 0.00 0.00 0.00 75 1019.3
20260507133017 10 360 1.6 8.0 0.00 0.00 0.00 77 1019.2
20260507131531 9 360 3.2 9.7 0.00 0.00 0.00 78 1019.5
20260507130045 8 360 3.2 4.8 0.00 0.00 0.00 80 1019.7
20260507124556 7 360 1.6 6.4 0.00 0.00 0.00 80 1019.6
20260507123013 7 360 1.6 6.4 0.00 0.00 0.00 80 1019.7
20260507121518 7 360 1.6 4.8 0.00 0.00 0.00 79 1019.6
20260507120044 6 360 1.6 3.2 0.00 0.00 0.00 79 1019.5
20260507114602 6 360 1.6 4.8 0.00 0.00 0.00 79 1019.5
20260507113033 6 360 1.6 3.2 0.00 0.00 0.00 79 1019.5
20260507111520 6 360 1.6 3.2 0.00 0.00 0.00 79 1019.4
20260507110037 6 360 1.6 3.2 0.00 0.00 0.00 79 1019.4
20260507104559 6 360 1.6 3.2 0.00 0.00 0.00 79 1019.4
20260507103018 6 360 0.0 1.6 0.00 0.00 0.00 80 1019.5
20260507101535 6 360 0.0 4.8 0.00 0.00 0.00 78 1019.4
20260507100051 6 360 1.6 3.2 0.00 0.00 0.00 77 1019.4
20260507094502 6 360 1.6 4.8 0.00 0.00 0.00 77 1019.6
20260507093021 6 360 1.6 3.2 0.00 0.00 0.00 76 1019.7
20260507091542 6 360 1.6 3.2 0.00 0.00 0.00 76 1019.7
20260507090059 7 360 1.6 3.2 0.00 0.00 0.00 75 1019.7
20260507084518 7 360 1.6 3.2 0.00 0.00 0.00 75 1019.7
20260507083033 7 360 1.6 3.2 0.00 0.00 0.00 74 1019.8
20260507081554 7 360 0.0 3.2 0.00 0.00 0.00 73 1019.9
20260507080003 7 360 0.0 0.0 0.00 0.00 0.00 74 1019.7
20260507074528 7 360 0.0 1.6 0.00 0.00 0.00 73 1019.8
20260507073029 7 360 0.0 3.2 0.00 0.00 0.00 72 1020.0
20260507071544 7 360 1.6 3.2 0.00 0.00 0.00 72 1020.1
20260507070101 8 360 0.0 1.6 0.00 0.00 0.00 72 1020.2
20260507064514 8 360 1.6 3.2 0.00 0.00 0.00 71 1020.4
20260507063046 8 360 0.0 3.2 0.00 0.00 0.00 74 1020.5
20260507061555 8 360 0.0 1.6 0.00 0.00 0.00 74 1020.4
20260507060013 8 360 0.0 1.6 0.00 0.00 0.00 73 1020.6
20260507054528 8 360 0.0 3.2 0.00 0.00 0.00 73 1020.5
20260507053038 8 360 0.0 3.2 0.00 0.00 0.00 72 1020.5
20260507051553 8 360 0.0 1.6 0.00 0.00 0.00 72 1020.5
20260507050100 8 360 0.0 3.2 0.00 0.00 0.00 71 1020.6
20260507044600 7 360 0.0 1.6 0.00 0.00 0.00 72 1020.4
20260507043019 7 360 0.0 1.6 0.00 0.00 0.00 71 1020.6
20260507041542 7 360 0.0 3.2 0.00 0.00 0.00 71 1020.7
20260507040105 7 360 0.0 0.0 0.00 0.00 0.00 70 1020.8
20260507034505 7 360 0.0 0.0 0.00 0.00 0.00 67 1020.7
20260507033019 7 360 0.0 0.0 0.00 0.00 0.00 68 1020.7
20260507031531 8 360 0.0 0.0 0.00 0.00 0.00 67 1020.8
20260507030045 8 360 0.0 0.0 0.00 0.00 0.00 64 1020.7
20260507024501 8 360 0.0 0.0 0.00 0.00 0.00 60 1020.5
20260507023015 9 360 0.0 0.0 0.00 0.00 0.00 59 1020.5
20260507021521 10 360 0.0 0.0 0.00 0.00 0.00 60 1020.4
20260507020044 10 360 0.0 0.0 0.00 0.00 0.00 52 1020.3
20260507014554 11 360 0.0 0.0 0.00 0.00 0.00 54 1020.3
20260507013013 12 360 0.0 1.6 0.00 0.00 0.00 47 1020.0
20260507011521 12 360 0.0 1.6 0.00 0.00 0.00 46 1019.9
20260507010041 13 360 0.0 4.8 0.00 0.00 0.00 46 1019.9
20260507004559 13 360 1.6 6.4 0.00 0.00 0.00 43 1019.9
20260507004501 13 360 1.6 6.4 0.00 0.00 0.00 44 1019.9
20260507003020 13 360 1.6 4.8 0.00 0.00 0.00 43 1019.8
20260507001553 13 360 3.2 8.0 0.00 0.00 0.00 41 1019.9
20260507000057 13 360 4.8 9.7 0.00 0.00 0.00 42 1019.9
20260506234522 14 360 6.4 14.5 0.00 0.00 0.00 42 1019.9
20260506233019 14 360 3.2 8.0 0.00 0.00 0.00 42 1019.8
20260506231539 14 360 1.6 11.3 0.00 0.00 0.00 41 1019.8
20260506230047 14 360 4.8 16.1 0.00 0.00 0.00 40 1019.9
20260506224522 14 360 8.0 19.3 0.00 0.00 0.00 43 1019.9
20260506223022 14 360 8.0 17.7 0.00 0.00 0.00 40 1020.0
20260506221538 14 360 4.8 11.3 0.00 0.00 0.00 40 1020.0
20260506220105 14 360 3.2 8.0 0.00 0.00 0.00 44 1020.2
20260506214509 14 360 6.4 22.5 0.00 0.00 0.00 41 1020.3
20260506213027 14 360 4.8 11.3 0.00 0.00 0.00 42 1020.3
20260506211556 14 360 6.4 20.9 0.00 0.00 0.00 47 1020.5
20260506210010 13 360 8.0 19.3 0.00 0.00 0.00 43 1020.7
20260506204525 14 360 6.4 14.5 0.00 0.00 0.00 44 1020.9
20260506203033 13 360 1.6 11.3 0.00 0.00 0.00 45 1021.0
20260506201553 13 360 4.8 17.7 0.00 0.00 0.00 44 1021.3
20260506200009 13 360 3.2 9.7 0.00 0.00 0.00 42 1021.4
20260506194532 13 360 3.2 16.1 0.00 0.00 0.00 48 1021.5
20260506193032 13 360 3.2 11.3 0.00 0.00 0.00 41 1021.6
20260506191553 13 360 3.2 16.1 0.00 0.00 0.00 42 1021.7
20260506190012 13 360 9.7 20.9 0.00 0.00 0.00 45 1021.9
20260506184527 12 360 4.8 19.3 0.00 0.03 0.00 44 1021.9
20260506183059 12 360 4.8 12.9 0.00 0.03 0.00 46 1022.1